sat.trackr.live / text

‹ back to catalog

EXPRESS-MD2

NORAD 38745 · 2012-044B

PAYLOAD ACTIVE UNKNOWN

§ Identity

Operator
Country
CIS
Launch date
2012-08-06
Launch site
TYMSC
Launch vehicle
Mass (kg)
RCS (m²)
5.58

External: N2YO · Heavens-Above · Gunter

§ Orbital elements

Epoch: 2026-05-24T23:04:39.465696Z

Period
115.97 min
Inclination
49.8223°
Eccentricity
0.1576812
Mean motion
12.41648082 rev/d
Perigee alt
257.4 km
Apogee alt
2,741.8 km
Semi-major
7,877.8 km
B*
5.5311e-4
RAAN
139.2727°
Arg perigee
109.2156°
Mean anomaly
268.5594°
Rev number
55,792

§ Raw data

EXPRESS-MD21 38745U 12044B   26144.96156789  .00031218  56486-5  55311-3 0  99932 38745  49.8223 139.2727 1576812 109.2156 268.5594 12.41648082557925

JSON: /api/v1/satellites/38745 · /tle

For live sub-satellite position, see the globe view (requires WebGL).

§ Visibility from observer

Set your observer location to see the next 7 days of passes ≥ 10°. The values pass through the URL so the page stays shareable.

No JS? Fill the form by hand. The geolocation button needs JavaScript.